| time (UTC) | temp F | wind direction | speed MPH | gust MPH | rain 1hr in | rain 24hr in | rain mn in | humidity % | barometer mb |
| 20260506204549 | 51 | 327 | 1.0 | 5.0 | 0.02 | 1.26 | 1.17 | 94 | 1010.8 |
| 20260506203030 | 51 | 152 | 0.0 | 1.0 | 0.05 | 1.26 | 1.17 | 94 | 1010.5 |
| 20260506201518 | 51 | 152 | 0.0 | 0.0 | 0.06 | 1.26 | 1.17 | 94 | 1010.3 |
| 20260506200009 | 52 | 152 | 0.0 | 2.0 | 0.09 | 1.31 | 1.17 | 94 | 1010.3 |
| 20260506194627 | 52 | 152 | 0.0 | 1.0 | 0.08 | 1.29 | 1.14 | 94 | 1010.2 |
| 20260506193053 | 52 | 135 | 0.0 | 5.0 | 0.06 | 1.27 | 1.12 | 93 | 1009.9 |
| 20260506191545 | 52 | 158 | 0.0 | 2.0 | 0.05 | 1.26 | 1.12 | 93 | 1009.6 |
| 20260506190035 | 52 | 158 | 0.0 | 3.0 | 0.01 | 1.22 | 1.08 | 93 | 1009.3 |
| 20260506184527 | 52 | 307 | 0.0 | 0.0 | 0.00 | 1.28 | 1.07 | 92 | 1008.8 |
| 20260506183021 | 53 | 307 | 0.0 | 0.0 | 0.00 | 1.28 | 1.07 | 92 | 1008.3 |
| 20260506181519 | 53 | 307 | 0.0 | 0.0 | 0.00 | 1.28 | 1.07 | 92 | 1008.4 |
| 20260506180008 | 53 | 307 | 0.0 | 1.0 | 0.00 | 1.36 | 1.07 | 91 | 1008.3 |
| 20260506174604 | 53 | 212 | 0.0 | 3.0 | 0.00 | 1.36 | 1.07 | 91 | 1008.2 |
| 20260506173108 | 54 | 319 | 0.0 | 3.0 | 0.00 | 1.36 | 1.07 | 91 | 1008.1 |
| 20260506171546 | 54 | 299 | 0.0 | 2.0 | 0.00 | 1.36 | 1.07 | 91 | 1008.2 |
| 20260506170042 | 54 | 330 | 0.0 | 4.0 | 0.00 | 1.36 | 1.07 | 91 | 1008.1 |
| 20260506164526 | 54 | 281 | 1.0 | 9.0 | 0.00 | 1.39 | 1.07 | 90 | 1008.1 |
| 20260506163018 | 54 | 292 | 1.0 | 3.0 | 0.00 | 1.39 | 1.07 | 90 | 1007.9 |
| 20260506161509 | 55 | 314 | 4.0 | 8.0 | 0.00 | 1.39 | 1.07 | 89 | 1007.8 |
| 20260506154555 | 55 | 329 | 2.0 | 4.0 | 0.00 | 1.39 | 1.07 | 92 | 1008.3 |
| 20260506153043 | 54 | 344 | 1.0 | 4.0 | 0.00 | 1.39 | 1.07 | 92 | 1008.5 |
| 20260506151549 | 54 | 322 | 0.0 | 4.0 | 0.00 | 1.39 | 1.07 | 92 | 1008.5 |
| 20260506150032 | 55 | 308 | 0.0 | 5.0 | 0.00 | 1.39 | 1.07 | 91 | 1008.6 |
| 20260506144520 | 55 | 360 | 1.0 | 3.0 | 0.01 | 1.39 | 1.07 | 92 | 1008.7 |
| 20260506143033 | 53 | 344 | 2.0 | 4.0 | 0.02 | 1.39 | 1.07 | 94 | 1008.8 |
| 20260506141502 | 53 | 139 | 1.0 | 3.0 | 0.06 | 1.39 | 1.07 | 95 | 1009.1 |
| 20260506140111 | 52 | 193 | 0.0 | 1.0 | 0.13 | 1.39 | 1.07 | 94 | 1008.9 |
| 20260506134550 | 51 | 151 | 5.0 | 10.0 | 0.17 | 1.39 | 1.06 | 94 | 1009.0 |
| 20260506133045 | 51 | 137 | 0.0 | 3.0 | 0.25 | 1.38 | 1.06 | 94 | 1008.9 |
| 20260506131533 | 51 | 160 | 1.0 | 11.0 | 0.28 | 1.34 | 1.02 | 92 | 1009.7 |
| 20260506130018 | 53 | 133 | 1.0 | 3.0 | 0.22 | 1.27 | 0.94 | 94 | 1009.2 |
| 20260506124506 | 53 | 315 | 2.0 | 4.0 | 0.16 | 1.20 | 0.88 | 93 | 1008.3 |
| 20260506123103 | 53 | 258 | 0.0 | 5.0 | 0.07 | 1.12 | 0.80 | 93 | 1007.7 |
| 20260506121553 | 54 | 314 | 1.0 | 7.0 | 0.01 | 1.06 | 0.73 | 94 | 1007.0 |
| 20260506120046 | 54 | 288 | 2.0 | 5.0 | 0.01 | 1.05 | 0.72 | 94 | 1006.5 |
| 20260506114542 | 54 | 293 | 0.0 | 3.0 | 0.01 | 1.06 | 0.72 | 94 | 1006.5 |
| 20260506113030 | 54 | 286 | 0.0 | 2.0 | 0.01 | 1.06 | 0.72 | 94 | 1006.6 |
| 20260506111518 | 53 | 286 | 0.0 | 1.0 | 0.01 | 1.06 | 0.72 | 94 | 1006.8 |
| 20260506110010 | 54 | 277 | 0.0 | 2.0 | 0.00 | 1.05 | 0.72 | 94 | 1006.9 |
| 20260506104502 | 54 | 297 | 0.0 | 2.0 | 0.00 | 1.05 | 0.72 | 94 | 1007.1 |
| 20260506103058 | 54 | 307 | 0.0 | 3.0 | 0.02 | 1.05 | 0.72 | 95 | 1007.1 |
| 20260506101556 | 54 | 316 | 0.0 | 0.0 | 0.03 | 1.05 | 0.72 | 94 | 1007.0 |
| 20260506100043 | 54 | 316 | 0.0 | 3.0 | 0.03 | 1.05 | 0.72 | 94 | 1006.7 |
| 20260506094545 | 54 | 316 | 0.0 | 0.0 | 0.03 | 1.05 | 0.72 | 95 | 1006.8 |
| 20260506093028 | 54 | 316 | 0.0 | 0.0 | 0.02 | 1.03 | 0.70 | 95 | 1006.8 |
| 20260506091522 | 53 | 316 | 0.0 | 0.0 | 0.00 | 1.02 | 0.69 | 95 | 1006.6 |
| 20260506090014 | 54 | 320 | 1.0 | 4.0 | 0.01 | 1.11 | 0.69 | 95 | 1006.5 |
| 20260506084510 | 53 | 323 | 0.0 | 0.0 | 0.02 | 1.11 | 0.69 | 95 | 1006.9 |
| 20260506083101 | 53 | 323 | 0.0 | 0.0 | 0.03 | 1.11 | 0.69 | 95 | 1007.1 |
| 20260506081555 | 53 | 323 | 0.0 | 3.0 | 0.04 | 1.11 | 0.69 | 95 | 1007.0 |
| 20260506073027 | 53 | 300 | 0.0 | 3.0 | 0.03 | 1.17 | 0.65 | 95 | 1007.3 |
| 20260506071520 | 53 | 320 | 0.0 | 0.0 | 0.05 | 1.15 | 0.65 | 95 | 1007.5 |
| 20260506061558 | 52 | 309 | 0.0 | 0.0 | 0.06 | 1.12 | 0.60 | 95 | 1007.9 |
| 20260506044511 | 52 | 154 | 0.0 | 0.0 | 0.19 | 1.02 | 0.49 | 95 | 1008.3 |
| 20260506043001 | 52 | 154 | 0.0 | 0.0 | 0.21 | 1.00 | 0.46 | 95 | 1008.4 |
| 20260506041607 | 52 | 154 | 0.0 | 0.0 | 0.23 | 0.97 | 0.43 | 95 | 1008.6 |
| 20260506040053 | 52 | 154 | 0.0 | 0.0 | 0.23 | 0.91 | 0.38 | 95 | 1008.6 |
| 20260506034546 | 52 | 154 | 0.0 | 0.0 | 0.20 | 0.83 | 0.30 | 95 | 1008.7 |
| 20260506033038 | 53 | 154 | 0.0 | 0.0 | 0.17 | 0.79 | 0.25 | 95 | 1008.8 |
| 20260506031531 | 53 | 154 | 0.0 | 0.0 | 0.16 | 0.74 | 0.20 | 95 | 1008.9 |
| 20260506030025 | 53 | 154 | 0.0 | 0.0 | 0.13 | 0.69 | 0.15 | 95 | 1009.1 |
| 20260506024515 | 53 | 154 | 0.0 | 0.0 | 0.08 | 0.64 | 0.10 | 95 | 1009.4 |
| 20260506023008 | 53 | 154 | 0.0 | 0.0 | 0.07 | 0.62 | 0.09 | 95 | 1009.4 |
| 20260506021502 | 53 | 154 | 0.0 | 0.0 | 0.02 | 0.56 | 0.04 | 95 | 1009.6 |
| 20260506020100 | 53 | 154 | 0.0 | 0.0 | 0.01 | 0.56 | 0.02 | 95 | 1009.6 |
| 20260506014556 | 53 | 154 | 0.0 | 0.0 | 0.01 | 0.56 | 0.02 | 95 | 1009.7 |
| 20260506013047 | 53 | 154 | 0.0 | 0.0 | 0.00 | 0.55 | 0.02 | 95 | 1009.7 |
| 20260506011542 | 53 | 154 | 0.0 | 0.0 | 0.00 | 0.55 | 0.02 | 95 | 1009.9 |
| 20260506010034 | 53 | 154 | 0.0 | 2.0 | 0.00 | 0.55 | 0.02 | 95 | 1010.2 |
| 20260506004538 | 53 | 154 | 0.0 | 2.0 | 0.00 | 0.55 | 0.02 | 95 | 1010.1 |
| 20260506003025 | 53 | 154 | 0.0 | 0.0 | 0.00 | 0.55 | 0.02 | 95 | 1010.2 |
| 20260506001517 | 53 | 154 | 0.0 | 0.0 | 0.02 | 0.55 | 0.02 | 95 | 1010.5 |
| 20260506000018 | 53 | 154 | 1.0 | 2.0 | 0.02 | 0.55 | 0.02 | 95 | 1010.6 |
| 20260505234513 | 53 | 154 | 0.0 | 0.0 | 0.02 | 0.55 | 0.02 | 95 | 1010.5 |
| 20260505233105 | 53 | 154 | 0.0 | 2.0 | 0.02 | 0.55 | 0.02 | 95 | 1010.9 |
| 20260505231558 | 53 | 154 | 0.0 | 0.0 | 0.00 | 0.54 | 0.00 | 95 | 1011.0 |
| 20260505230104 | 53 | 154 | 0.0 | 0.0 | 0.00 | 0.54 | 0.00 | 95 | 1010.9 |
| 20260505224536 | 53 | 154 | 0.0 | 0.0 | 0.01 | 0.54 | 0.00 | 95 | 1010.9 |
| 20260505223036 | 53 | 154 | 0.0 | 0.0 | 0.02 | 0.54 | 0.00 | 95 | 1011.0 |
| 20260505221517 | 53 | 154 | 0.0 | 0.0 | 0.06 | 0.54 | 0.00 | 95 | 1011.2 |
| 20260505220023 | 53 | 154 | 0.0 | 0.0 | 0.06 | 0.54 | 0.54 | 94 | 1011.3 |
| 20260505214502 | 53 | 154 | 0.0 | 0.0 | 0.05 | 0.53 | 0.53 | 94 | 1011.4 |
| 20260505213102 | 53 | 154 | 0.0 | 0.0 | 0.04 | 0.50 | 0.50 | 94 | 1011.7 |
| 20260505211607 | 53 | 154 | 0.0 | 0.0 | 0.02 | 0.48 | 0.48 | 94 | 1011.7 |
| 20260505210052 | 53 | 154 | 0.0 | 0.0 | 0.03 | 0.48 | 0.48 | 94 | 1011.7 |